This is the latest recevied weather packets stored in our database for station/object N1OF. If no packets are shown the sender has not sent any weather packets the latest 10 day(s).
| Time | Temp. | Humidity | Pressure | Rain* | Wind** | Luminosity | Snow |
|---|---|---|---|---|---|---|---|
| 1777666023 | 8.33° C | 77% | 1015.3 hPa | 0 mm | - | - | - |
| 1777665721 | 8.33° C | 76% | 1015.1 hPa | 0 mm | - | - | - |
| 1777665418 | 8.33° C | 76% | 1015.1 hPa | 0 mm | - | - | - |
| 1777665114 | 8.89° C | 74% | 1014.9 hPa | 0 mm | - | - | - |
| 1777664809 | 8.89° C | 73% | 1014.7 hPa | 0 mm | - | - | - |
| 1777664505 | 9.44° C | 70% | 1014.8 hPa | 0 mm | - | - | - |
| 1777664203 | 9.44° C | 64% | 1014.7 hPa | 0 mm | - | - | - |
| 1777663901 | 10° C | 63% | 1014.6 hPa | 0 mm | - | - | - |
| 1777663597 | 9.44° C | 65% | 1014.6 hPa | 0 mm | - | - | - |
| 1777663295 | 9.44° C | 66% | 1014.6 hPa | 0 mm | - | - | - |
| 1777662992 | 10° C | 64% | 1014.6 hPa | 0 mm | - | - | - |
| 1777662689 | 10° C | 65% | 1014.8 hPa | 0 mm | - | - | - |
| 1777662385 | 8.89° C | 69% | 1014.9 hPa | 0 mm | - | - | - |
| 1777662080 | 8.89° C | 69% | 1014.7 hPa | 0 mm | - | - | - |
| 1777661777 | 9.44° C | 69% | 1014.6 hPa | 0 mm | - | - | - |
| 1777661473 | 9.44° C | 70% | 1014.7 hPa | 0 mm | - | - | - |
| 1777661169 | 8.89° C | 72% | 1014.7 hPa | 0 mm | - | - | - |
| 1777660863 | 8.33° C | 72% | 1014.5 hPa | 0 mm | - | - | - |
| 1777660561 | 9.44° C | 72% | 1014.8 hPa | 0 mm | - | - | - |
| 1777660257 | 8.33° C | 75% | 1014.7 hPa | 0 mm | - | - | - |
| 1777659954 | 7.78° C | 75% | 1014.7 hPa | 0 mm | - | - | - |
| 1777659651 | 8.33° C | 78% | 1014.7 hPa | 0 mm | - | - | - |
| 1777659348 | 7.78° C | 78% | 1014.5 hPa | 0 mm | - | - | - |
| 1777659044 | 7.78° C | 82% | 1014.7 hPa | 0 mm | - | - | - |
| 1777658743 | 7.22° C | 83% | 1014.5 hPa | 0 mm | - | - | - |
* Rain latest hour (hover to see other rain measurements)
** Current wind speed in m/s (hover to see current wind gust speed)